Regional Weather Roundup
Issued by NWS Midland/Odessa, TX

Skip options and go directly to product.
Home | Oldest Version | Previous Version | Current Version | All | Text Only | Save Text | Print | Product List | Glossary Off

Skip product version selection by date and time.   

681
ASUS44 KMAF 211710
RWRMAF
MIDLAND AREA WEATHER ROUNDUP
NATIONAL WEATHER SERVICE MIDLAND TX
1100 AM CST FRI NOV 21 2014

...IN SOUTHWEST TEXAS AND SOUTHEAST NEW MEXICO...

CITY           SKY/WX    TMP DP  RH WIND       PRES   REMARKS
ALPINE         NOT AVBL
ANDREWS        FAIR      55  43  64 SW8       30.07R
ARTESIA        NOT AVBL
BIG SPRING     NOT AVBL
CARLSBAD       SUNNY     54  24  31 NE6       30.04F
DRYDEN           N/A     54  53  97 E10       30.07F
FORT STOCKTON  SUNNY     66  34  30 SE8       30.05F
GUAD PASS      SUNNY     59  24  26 SW10      30.11S
HOBBS          SUNNY     61  19  20 CALM      30.06S
MARFA          MOSUNNY   64  36  34 S13       30.13S
MIDLAND AIRPK  NOT AVBL
MIDLAND INTL   MOSUNNY   51  49  92 S7        30.07S
ODESSA         MOSUNNY   54  46  74 CALM      30.07S
PECOS          MOSUNNY   51  35  53 CALM      30.07R
PRESIDIO       FAIR      56  39  51 S3        30.07R
SEMINOLE       NOT AVBL
SNYDER         NOT AVBL
WINK           MOSUNNY   55  39  54 SE3       30.06R
$$
...OTHER STATIONS IN TEXAS...

CITY           SKY/WX    TMP DP  RH WIND       PRES   REMARKS
ABILENE        MOSUNNY   65  53  65 S17       30.08S
AMARILLO       SUNNY     47  36  65 VRB3      30.06F
AUSTIN         CLOUDY    67  65  93 S9        30.11S
BROWNSVILLE    CLOUDY    76  69  79 SE18      30.09R
CORPUS CHRISTI CLOUDY    76  67  73 S18G25    30.09S
DALLAS FTW     CLOUDY    62  59  90 SE8       30.12S FOG
DEL RIO        CLOUDY    62  61  96 S5        30.06F FOG
EL PASO        MOSUNNY   57  24  28 CALM      30.05F
HOUSTON INT    RAIN      65  64  97 SE9       30.17S FOG
LUBBOCK        PTSUNNY   51  36  56 CALM      30.06S
SAN ANGELO     MOSUNNY   67  54  63 S12       30.08S
SAN ANTONIO    PTSUNNY   71  64  78 SE7       30.10F
WACO           FOG       64  62  93 SE10      30.12F VSB 1
WICHITA FALLS  NOT AVBL
$$
...OTHER LOCATIONS IN NEW MEXICO...

CITY           SKY/WX    TMP DP  RH WIND       PRES   REMARKS
ALAMAGORDO     MOSUNNY   54  19  26 CALM      30.07F
ALBUQUERQUE    PTSUNNY   40  15  36 NW8       30.10R WCI  34
CANNON AFB     SUNNY     49  29  45 VRB5      30.06S
CLOVIS         SUNNY     46  30  53 S5        30.06S
HOLLOMAN AFB   MOSUNNY   50  18  28 S2        30.06S
ROSWELL        SUNNY     50  27  40 NE3       30.06S
RUIDOSO        MOSUNNY   54  16  22 W13       30.12S
SANTA FE       PTSUNNY   41  19  41 N13       30.09S WCI  34
TRUTH OR CONSE PTSUNNY   50  19  29 CALM      30.06S
TUCUMCARI      SUNNY     46  28  49 VRB3      30.03F
$$

USA.gov is the U.S. government's official web portal to all federal, state and local government web resources and services.